Weather History for GMMC - November, 2012

Change the Weather History Date:

Sunday, November 11, 2012

  Actual Average (GMMN) Record (GMMN)
Temperature  
Mean Temperature 62 °F -  
Max Temperature 66 °F 66 °F 82 °F (2006)
Min Temperature 59 °F 48 °F 39 °F (2001)
Degree Days  
Heating Degree Days 2    
Growing Degree Days 12 (Base 50)    
Moisture  
Dew Point 53 °F    
Average Humidity 72    
Maximum Humidity 94    
Minimum Humidity 46    
Precipitation  
Precipitation 0.20 in 0.10 in - ()
Sea Level Pressure  
Sea Level Pressure 29.97 in    
Wind  
Wind Speed 7 mph ()    
Max Wind Speed 18 mph    
Max Gust Speed 30 mph    
Visibility 6.3 miles    
Events Rain    
Averages and records for this station are not official NWS values.
T = Trace of Precipitation, MM = Missing Value Source: Averaged Metar Reports

Daily Weather History Graph

Daily Weather History Graph

Search for Another Location

Airport or City:

Trip Planner

Search our weather history database for the weather conditions in past years. The results will help you decide how hot, cold, wet, or windy it might be!

Date:

Astronomy

Nov. 11, 2012 Rise Set
Actual Time 6:58 AM WET 5:30 PM WET
Civil Twilight 6:32 AM WET 5:56 PM WET
Nautical Twilight 6:02 AM WET 6:26 PM WET
Astronomical Twilight 5:33 AM WET 6:55 PM WET
Moon 4:03 AM WET (11/11) 3:39 PM WET (11/11)
Length of Visible Light 11h 23m
Length of Day
10h 31m
Waning Crescent, 8% of the Moon is Illuminated
Nov 11
Waning Crescent
Nov 13
New
Nov 20
First Quarter
Nov 28
Full
Dec 6
Last Quarter

Hourly Weather History & Observations

Time (WET) Temp. Dew Point Humidity Pressure Visibility Wind Dir Wind Speed Gust Speed Precip Events Conditions
12:00 AM 61 °F 56 °F 77% 30.05 in 12 mi SSW 3.5 mph - -   Partly Cloudy
12:00 AM 60.8 °F 55.4 °F 82% 30.01 in 6.2 mi SSW 3.5 mph - N/A   Partly Cloudy
1:00 AM 60.8 °F 55.4 °F 82% 30.01 in 6.2 mi SW 3.5 mph - N/A   Partly Cloudy
2:00 AM 60.8 °F 57.2 °F 88% 29.98 in 6.2 mi SSW 4.6 mph - N/A   Partly Cloudy
3:00 AM 60 °F 55 °F 78% 30.03 in 6 mi SSW 4.6 mph - -   Partly Cloudy
3:00 AM 60.8 °F 55.4 °F 82% 29.98 in 6.2 mi SSW 4.6 mph - N/A   Scattered Clouds
4:00 AM 60.8 °F 55.4 °F 82% 29.95 in 6.2 mi SSW 5.8 mph - N/A   Scattered Clouds
5:00 AM 60.8 °F 57.2 °F 88% 29.95 in 6.2 mi North - - N/A   Scattered Clouds
6:00 AM 61 °F 60 °F 93% 29.99 in 4 mi WNW 6.9 mph - - Rain Light Rain
6:00 AM 60.8 °F 59.0 °F 94% 29.95 in 3.7 mi WNW 6.9 mph - N/A Rain Light Rain
7:00 AM 60.8 °F 59.0 °F 94% 29.95 in 3.7 mi SW 4.6 mph - N/A Rain Light Rain
8:00 AM 64.4 °F 51.8 °F 64% 29.95 in 3.7 mi NNW 11.5 mph 25.3 mph N/A   Scattered Clouds
9:00 AM 65 °F 51 °F 49% 29.99 in 9 mi NW 11.5 mph - -   Partly Cloudy
9:00 AM 66.2 °F 50.0 °F 56% 29.95 in 6.2 mi NW 11.5 mph 23.0 mph N/A   Scattered Clouds
10:00 AM 66.2 °F 53.6 °F 64% 29.98 in 6.2 mi NW 9.2 mph - N/A   Scattered Clouds
11:00 AM 66.2 °F 51.8 °F 60% 29.98 in 6.2 mi NW 18.4 mph 29.9 mph N/A   Scattered Clouds
12:00 PM 63 °F 57 °F 74% 30.01 in 12 mi North 18.4 mph - - Rain Light Rain
12:00 PM 62.6 °F 57.2 °F 82% 29.98 in 6.2 mi North 18.4 mph 29.9 mph N/A Rain Light Rain
1:00 PM 60.8 °F 57.2 °F 88% 29.95 in 6.2 mi North 6.9 mph - N/A   Scattered Clouds
2:00 PM 60.8 °F 55.4 °F 82% 29.95 in 6.2 mi North 9.2 mph - N/A   Scattered Clouds
3:00 PM 62 °F 56 °F 73% 29.97 in 6 mi North 9.2 mph - - Rain Light Rain
3:00 PM 60.8 °F 57.2 °F 88% 29.95 in 6.2 mi North 9.2 mph - N/A Rain Rain
4:00 PM 60.8 °F 50.0 °F 68% 29.95 in 6.2 mi NNW 6.9 mph - N/A   Scattered Clouds
5:00 PM 62.6 °F 50.0 °F 63% 29.95 in 6.2 mi NNW 13.8 mph - N/A   Scattered Clouds
6:00 PM 62 °F 49 °F 54% 29.97 in 6 mi NW 9.2 mph - - Rain Light Rain
6:00 PM 62.6 °F 50.0 °F 63% 29.95 in 6.2 mi NW 9.2 mph - N/A   Scattered Clouds
7:00 PM 62.6 °F 48.2 °F 59% 29.95 in 6.2 mi NNW 9.2 mph - N/A   Scattered Clouds
8:00 PM 62.6 °F 48.2 °F 59% 29.95 in 6.2 mi NNW 9.2 mph - N/A   Scattered Clouds
9:00 PM 61 °F 46 °F 46% 30.00 in 6 mi North 11.5 mph - - Rain Light Rain Showers
9:00 PM 60.8 °F 46.4 °F 59% 29.95 in 6.2 mi North 11.5 mph - N/A   Scattered Clouds
10:00 PM 59.0 °F 44.6 °F 59% 29.98 in 6.2 mi NW 6.9 mph - N/A   Scattered Clouds
11:00 PM 60.8 °F 44.6 °F 55% 29.98 in 6.2 mi NNE 11.5 mph - N/A   Unknown